Kindakun Rocks, British Columbia

9:14 PM PDT on August 18, 2017 (GMT -0700)
Kindakun Rocks

Weather History for CWQS - February, 2014

Change the Weather History Date:

Friday, February 7, 2014

  Actual Average (CYZP) Record (CYZP)
Temperature  
Mean Temperature 32 °F -  
Max Temperature 37 °F 41 °F 50 °F (1998)
Min Temperature 27 °F 34 °F 26 °F (2014)
Degree Days  
Heating Degree Days 33    
Moisture  
Dew Point 19 °F    
Average Humidity 58    
Maximum Humidity 75    
Minimum Humidity 35    
Precipitation  
Precipitation 0.00 in - - ()
Sea Level Pressure  
Sea Level Pressure 29.90 in    
Wind  
Wind Speed 5 mph ()    
Max Wind Speed 14 mph    
Max Gust Speed 22 mph    
Averages and records for this station are not official NWS values.
T = Trace of Precipitation, MM = Missing Value Source: Averaged Metar Reports

Daily Weather History Graph

Daily Weather History Graph

Search for Another Location

Airport or City:

Trip Planner

Search our weather history database for the weather conditions in past years. The results will help you decide how hot, cold, wet, or windy it might be!

Date:

Astronomy

Feb. 07, 2014 Rise Set
Actual Time 8:24 AM PST 5:46 PM PST
Civil Twilight 7:47 AM PST 6:23 PM PST
Nautical Twilight 7:06 AM PST 7:05 PM PST
Astronomical Twilight 6:25 AM PST 7:45 PM PST
Moon 11:53 AM PST (2/7) 2:55 AM PST (2/7)
Length of Visible Light 10h 36m
Length of Day
9h 22m
First Quarter, 60% of the Moon is Illuminated
Feb 7
First Quarter
Feb 14
Full
Feb 22
Last Quarter
Mar 1
New
Mar 8
First Quarter

Hourly Weather History & Observations

Time (PST) Temp. Windchill Dew Point Humidity Pressure Visibility Wind Dir Wind Speed Gust Speed Precip Events Conditions
12:00 AM 29.3 °F - 16.2 °F 58% 29.87 in - NW 2.3 mph - N/A   Unknown
1:00 AM 29 °F - 16 °F 46% 29.85 in - ENE 8.1 mph - -  
1:00 AM 28.8 °F 20.9 °F 16.2 °F 59% 29.85 in - ENE 8.1 mph - N/A   Unknown
2:00 AM 28.0 °F 21.7 °F 18.1 °F 66% 29.85 in - East 5.8 mph - N/A   Unknown
3:00 AM 28.4 °F 22.2 °F 20.5 °F 72% 29.85 in - ESE 5.8 mph - N/A   Unknown
4:00 AM 28 °F - 20 °F 62% 29.85 in - East 4.6 mph - -  
4:00 AM 27.7 °F 22.4 °F 20.1 °F 73% 29.85 in - East 4.6 mph - N/A   Unknown
5:00 AM 27.7 °F 23.8 °F 19.2 °F 71% 29.84 in - East 3.5 mph - N/A   Unknown
6:00 AM 28.0 °F 20.8 °F 21.0 °F 75% 29.86 in - ESE 6.9 mph - N/A   Unknown
7:00 AM 28 °F - 20 °F 61% 29.85 in - ESE 5.8 mph - -  
7:00 AM 28.4 °F 22.2 °F 19.8 °F 70% 29.85 in - ESE 5.8 mph - N/A   Unknown
8:00 AM 28.4 °F 24.6 °F 19.9 °F 71% 29.86 in - East 3.5 mph - N/A   Unknown
9:00 AM 28.8 °F 22.6 °F 20.5 °F 71% 29.88 in - East 5.8 mph - N/A   Unknown
10:00 AM 31 °F - 22 °F 58% 29.89 in - ESE 9.2 mph - -  
10:00 AM 30.6 °F 22.4 °F 21.9 °F 70% 29.89 in - ESE 9.2 mph - N/A   Unknown
11:00 AM 33.8 °F 27.0 °F 22.8 °F 64% 29.89 in - ESE 8.1 mph - N/A   Unknown
12:00 PM 34.2 °F 30.0 °F 19.4 °F 55% 29.91 in - ESE 4.6 mph - N/A   Unknown
1:00 PM 35 °F - 20 °F 42% 29.91 in - SSE 4.6 mph - -  
1:00 PM 35.2 °F 31.2 °F 22.1 °F 59% 29.91 in - SSE 4.6 mph - N/A   Unknown
2:00 PM 36.0 °F - 17.1 °F 46% 29.91 in - SW 1.2 mph - N/A   Unknown
3:00 PM 35.6 °F - 19.6 °F 52% 29.92 in - Calm Calm - N/A   Unknown
4:00 PM 36 °F - 18 °F 35% 29.92 in - WNW 1.2 mph - -  
4:00 PM 36.0 °F - 18.5 °F 49% 29.92 in - WNW 1.2 mph - N/A   Unknown
5:00 PM 36.5 °F - 17.4 °F 46% 29.93 in - West 1.2 mph - N/A   Unknown
6:00 PM 34.0 °F 28.8 °F 16.5 °F 49% 29.94 in - ENE 5.8 mph - N/A   Unknown
7:00 PM 33 °F - 18 °F 40% 29.94 in - East 10.4 mph - -  
7:00 PM 33.3 °F 25.1 °F 17.6 °F 53% 29.94 in - East 10.4 mph 18.4 mph N/A   Unknown
8:00 PM 31.5 °F 22.3 °F 15.4 °F 52% 29.95 in - East 11.5 mph 17.3 mph N/A   Unknown
9:00 PM 31.3 °F 22.7 °F 16.2 °F 54% 29.96 in - ESE 10.4 mph 17.3 mph N/A   Unknown
10:00 PM 33 °F - 19 °F 43% 29.96 in - ESE 11.5 mph - -  
10:00 PM 31.3 °F 22.1 °F 18.9 °F 60% 29.96 in - ESE 11.5 mph 21.9 mph N/A   Unknown
11:00 PM 31.5 °F 21.4 °F 22.1 °F 68% 29.98 in - ESE 13.8 mph 20.7 mph N/A   Unknown